Date String (YYYY-MM-DD hh:mm:ss) UTC,Instrument flags,Ambient pressure (hPa),Sample flow (lpm),Bypass flow (lpm),Sample temperature (°C),Ambient temperature (°C),ASC tube jacket temperature (°C),LED temperature (°C),Box temperature (°C),Sample RH (%),Span deviation,Mass concentration (μg/m³),Mass concentration (μg/m³),Mass concentration (μg/m³)
DateTimeUTC,F1_M11,P_M11,Q1_M11,Q2_M11,T1_M11,T2_M11,T3_M11,T4_M11,T5_M11,U1_M11,ZSPAN_M11,X2_M11,X0_M11,X1_M11
2023-03-06 04:00:00,,0821.0,5.00,0.00,21.1,21.0,00.0,29.7,22.6,12.8,0000.0,0002.76,0007.85,0001.76
2023-03-06 04:01:00,,0821.0,5.00,0.00,21.0,20.1,00.0,29.7,22.3,12.8,0000.0,0002.78,0008.25,0001.78
2023-03-06 04:02:00,,0821.0,4.99,0.00,20.9,19.5,00.0,29.7,22.1,12.9,0000.0,0002.84,0009.18,0001.80
2023-03-06 04:03:00,,0821.1,5.01,0.00,20.8,18.9,00.0,29.7,21.9,13.0,0000.0,0002.86,0009.33,0001.81
2023-03-06 04:04:00,,0821.0,5.00,0.00,20.6,18.4,00.0,29.7,21.7,13.1,0000.0,0002.89,0009.31,0001.83
2023-03-06 04:05:00,,0821.0,5.01,0.00,20.6,19.2,00.0,29.6,21.9,13.1,0000.0,0002.90,0009.02,0001.84
2023-03-06 04:06:00,,0821.0,4.98,0.00,20.8,20.6,00.0,29.6,22.4,13.0,0000.0,0002.86,0008.93,0001.83
2023-03-06 04:07:00,,0821.0,4.97,0.00,20.9,21.8,00.0,29.6,22.8,12.9,0000.0,0002.89,0009.18,0001.84
2023-03-06 04:08:00,,0821.0,5.01,0.00,21.1,22.4,00.0,29.7,23.1,12.8,0000.0,0002.86,0009.14,0001.83
2023-03-06 04:09:00,,0820.9,5.01,0.00,21.2,21.8,00.0,29.7,22.9,12.8,0000.0,0002.87,0008.89,0001.83
2023-03-06 04:10:00,,0821.0,4.98,0.00,21.1,20.7,00.0,29.8,22.5,12.8,0000.0,0002.83,0008.18,0001.84
2023-03-06 04:11:00,,0821.0,4.99,0.00,21.0,19.9,00.0,29.8,22.2,12.9,0000.0,0002.88,0008.04,0001.85
2023-03-06 04:12:00,,0820.9,5.00,0.00,20.8,19.2,00.0,29.7,22.0,12.9,0000.0,0002.93,0007.78,0001.86
2023-03-06 04:13:00,,0820.9,5.00,0.00,20.7,18.7,00.0,29.7,21.8,13.0,0000.0,0002.84,0006.36,0001.87
2023-03-06 04:14:00,,0821.0,5.01,0.00,20.6,18.4,00.0,29.7,21.7,13.1,0000.0,0002.82,0005.94,0001.88
2023-03-06 04:15:00,,0821.0,5.03,0.00,20.7,19.8,00.0,29.6,22.1,13.1,0000.0,0002.81,0005.72,0001.89
2023-03-06 04:16:00,,0821.0,5.00,0.00,20.8,21.1,00.0,29.6,22.6,13.0,0000.0,0002.79,0005.60,0001.90
2023-03-06 04:17:00,,0820.9,5.00,0.00,21.0,22.0,00.0,29.6,22.9,12.9,0000.0,0002.85,0005.73,0001.92
2023-03-06 04:18:00,,0820.9,4.99,0.00,21.1,22.3,00.0,29.7,23.0,12.8,0000.0,0002.86,0005.35,0001.95
2023-03-06 04:19:00,,0820.9,5.01,0.00,21.1,21.3,00.0,29.7,22.7,12.8,0000.0,0002.90,0005.63,0001.97
2023-03-06 04:20:00,,0820.9,4.99,0.00,21.0,20.2,00.0,29.8,22.3,12.9,0000.0,0002.90,0005.51,0001.98
2023-03-06 04:21:00,,0820.9,5.00,0.00,20.9,19.5,00.0,29.8,22.1,13.0,0000.0,0002.91,0005.50,0001.98
2023-03-06 04:22:00,,0820.9,5.01,0.00,20.7,18.8,00.0,29.7,21.8,13.1,0000.0,0002.88,0005.57,0001.99
2023-03-06 04:23:00,,0820.9,5.00,0.00,20.6,18.5,00.0,29.7,21.7,13.2,0000.0,0002.80,0005.49,0001.98
2023-03-06 04:24:00,,0820.9,5.00,0.00,20.6,19.7,00.0,29.6,22.0,13.2,0000.0,0002.84,0005.47,0001.98
2023-03-06 04:25:00,,0820.9,5.01,0.00,20.8,20.9,00.0,29.6,22.5,13.1,0000.0,0002.90,0005.57,0001.97
2023-03-06 04:26:00,,0820.9,5.00,0.00,21.0,21.9,00.0,29.6,22.8,13.0,0000.0,0002.90,0005.61,0001.97
2023-03-06 04:27:00,,0820.9,4.97,0.00,21.1,22.3,00.0,29.7,23.0,12.9,0000.0,0002.97,0006.67,0001.98
2023-03-06 04:28:00,,0820.9,4.98,0.00,21.1,21.4,00.0,29.7,22.7,13.0,0000.0,0002.96,0006.99,0001.96
2023-03-06 04:29:00,,0820.9,5.00,0.00,21.0,20.2,00.0,29.8,22.3,13.1,0000.0,0002.93,0008.02,0001.95
2023-03-06 04:30:00,,0820.9,4.99,0.00,20.9,19.4,00.0,29.7,22.1,13.2,0000.0,0002.94,0007.97,0001.97
2023-03-06 04:31:00,,0820.9,4.99,0.00,20.7,18.8,00.0,29.7,21.8,13.3,0000.0,0002.99,0008.66,0002.00
2023-03-06 04:32:00,,0820.9,5.00,0.00,20.6,18.4,00.0,29.7,21.7,13.4,0000.0,0002.99,0008.77,0002.01
2023-03-06 04:33:00,,0820.9,5.02,0.00,20.6,19.6,00.0,29.6,22.0,13.5,0000.0,0002.99,0008.96,0002.01
2023-03-06 04:34:00,,0820.9,4.98,0.00,20.8,20.9,00.0,29.6,22.5,13.4,0000.0,0003.00,0008.92,0002.01
2023-03-06 04:35:00,,0820.9,5.01,0.00,20.9,21.9,00.0,29.6,22.8,13.3,0000.0,0003.00,0008.90,0002.02
2023-03-06 04:36:00,,0820.9,5.01,0.00,21.1,22.3,00.0,29.6,23.0,13.1,0000.0,0002.96,0008.88,0002.02
2023-03-06 04:37:00,,0820.9,4.99,0.00,21.1,21.4,00.0,29.7,22.8,13.1,0000.0,0003.00,0008.87,0002.04
2023-03-06 04:38:00,,0821.0,4.97,0.00,21.0,20.3,00.0,29.7,22.4,13.2,0000.0,0002.95,0008.60,0002.04
2023-03-06 04:39:00,,0821.0,5.00,0.00,20.9,19.5,00.0,29.7,22.1,13.3,0000.0,0002.99,0008.69,0002.07
2023-03-06 04:40:00,,0821.0,5.01,0.00,20.7,18.8,00.0,29.7,21.9,13.4,0000.0,0003.01,0007.94,0002.08
2023-03-06 04:41:00,,0821.0,5.00,0.00,20.7,18.9,00.0,29.7,21.9,13.5,0000.0,0002.99,0007.85,0002.08
2023-03-06 04:42:00,,0820.9,5.01,0.00,20.8,20.3,00.0,29.6,22.3,13.4,0000.0,0002.95,0007.60,0002.08
2023-03-06 04:43:00,,0821.0,4.98,0.00,20.9,21.5,00.0,29.6,22.7,13.3,0000.0,0002.99,0007.63,0002.09
2023-03-06 04:44:00,,0821.0,5.03,0.00,21.1,22.4,00.0,29.7,23.1,13.2,0000.0,0003.05,0007.65,0002.10
2023-03-06 04:45:00,,0821.0,5.03,0.00,21.2,22.1,00.0,29.7,23.0,13.1,0000.0,0003.10,0007.60,0002.12
2023-03-06 04:46:00,,0821.0,4.98,0.00,21.1,21.0,00.0,29.8,22.7,13.1,0000.0,0003.06,0007.67,0002.13
2023-03-06 04:47:00,,0821.0,5.00,0.00,21.0,20.1,00.0,29.8,22.4,13.2,0000.0,0003.04,0007.70,0002.12
2023-03-06 04:48:00,,0821.0,5.00,0.00,20.9,19.4,00.0,29.8,22.2,13.3,0000.0,0003.06,0007.77,0002.13
2023-03-06 04:49:00,,0821.1,5.01,0.00,20.8,18.8,00.0,29.8,21.9,13.4,0000.0,0003.05,0007.71,0002.14
2023-03-06 04:50:00,,0821.0,5.00,0.00,20.7,18.4,00.0,29.7,21.7,13.5,0000.0,0003.03,0007.25,0002.15
2023-03-06 04:51:00,,0821.1,5.01,0.00,20.7,19.4,00.0,29.7,22.0,13.5,0000.0,0003.01,0007.04,0002.16
2023-03-06 04:52:00,,0821.0,5.01,0.00,20.8,20.8,00.0,29.6,22.5,13.4,0000.0,0003.03,0006.99,0002.17
2023-03-06 04:53:00,,0821.0,5.05,0.00,21.0,21.9,00.0,29.7,22.9,13.3,0000.0,0003.05,0006.46,0002.18
2023-03-06 04:54:00,,0821.1,5.02,0.00,21.1,22.5,00.0,29.7,23.1,13.1,0000.0,0003.06,0006.10,0002.17
2023-03-06 04:55:00,,0821.0,4.99,0.00,21.2,21.7,00.0,29.8,22.9,13.1,0000.0,0003.12,0005.88,0002.19
2023-03-06 04:56:00,,0821.0,5.02,0.00,21.1,20.7,00.0,29.8,22.6,13.1,0000.0,0003.10,0006.91,0002.20
2023-03-06 04:57:00,,0821.1,5.00,0.00,21.0,20.0,00.0,29.8,22.4,13.2,0000.0,0003.16,0007.42,0002.21
2023-03-06 04:58:00,,0821.1,5.01,0.00,20.9,19.3,00.0,29.8,22.1,13.2,0000.0,0003.23,0007.69,0002.23
2023-03-06 04:59:00,,0821.1,5.00,0.00,20.8,18.9,00.0,29.8,21.9,13.3,0000.0,0003.28,0007.83,0002.25
